CZ-6A DEB

Satellite information

Favourite Embed

Satellite Type and Status

DEBRISIN ORBIT

Key statistics

Satellite CZ-6A DEB at a glance.

Uptime

1130

Days in orbit

Revolutions

≈ 13.9

Per day

Orbit

SSO

Sun Synchronous Orbit

Inclination

98.9

Latest

Satellite identification and parameters

Extended collection of information and parameters for CZ-6A DEB.

Object identification

Identified? True

Debris? True

Object name: CZ-6A DEB

International designator: 2022-151K

Object number (NORAD): 54268

Object ID (CCSDS): 54268

Country: PEOPLES REPUBLIC OF CHINA (PRC)

Current information (Y/N): Y

RCS size: MEDIUM

Orbital parameters

Period: 103.296 minutes

Inclination: 98.8723 deg

SMA: 7292.613 km

Apoapsis: 1002.813 km

Periapsis: 826.143 km

RAAN: 315.9872 deg

Eccentricy: 0.01211297

Argument of periapsis: 229.9116 deg

Mean anomaly: 129.1378 deg

Mean motion: 13.94048918 rev/day

Mean motion (dot): 0.00000286 rev/day2

B* drag term: 0.0002335476 1/REarth

Two-line elements (TLE)

Creation date: Dec. 14, 2025, 3:07 a.m.

Reference frame: TEME

Reference center: EARTH

Epoch: Dec. 13, 2025, 2:58 p.m. UTC

TLE line 0: 0 CZ-6A DEB

TLE line 1: 1 54268U 22151K 25347.62414096 .00000286 00000-0 23355-3 0 9996

TLE line 2: 2 54268 98.8723 315.9872 0121130 229.9116 129.1378 13.94048918156513

Live tracking on map

Real-time ground track for satellite CZ-6A DEB.

In-orbit conjunctions

A list of the most updated potential collisions computed for object CZ-6A DEB.

Target Orbit TCA Probability of collision Miss distance Type
SL-16 DEB LEO 2025-01-24 10:32:36 0.000215825 112.0 (m) DEBRIS
CZ-6A DEB SSO 2024-11-13 16:32:38 0.0002687411 284.0 (m) DEBRIS

Associated space launch

Chinese satellite reported for atmospheric/ocean/environmental/spatial parameter research purposes, details TBD.

CZ-6A DEB was lifted into orbit during the mission ‘Long March 6A | Yunhai 3’, on board a Long March 6A space rocket.

The launch took place on Nov. 11, 2022, 10:52 p.m. from Launch Complex 9A.

For more information about the launch, click the button.

Launch to space Long March 6A | Yunhai 3
Long March 6A | Yunhai 3

Agency: N/A

Status: Launch Successful

Launch date: Nov. 11, 2022, 10:52 p.m. UTC

Rocket: Long March 6A

Launch pad: Launch Complex 9A

Location: Taiyuan Satellite Launch Center, People's Republic of China

...

Latest news about this satellite

There are no fresh news available about this satellite. Check back as we update our databases every day.


Newsletter sign-up

Weekly statistics, charts and insights to help you stay on top of the space industry.